ERAGH UKFF-UKFF

Flight info

Callsign ERAGH
Flight time 0h 3m
Altitude 1500
Route DCT
Aircraft C172/L-SDFGRY/C

Departure

Time 2026-04-19 21:21
Airport Simferopol International Airport (UKFF)

Arrival

Time 2026-04-19 21:24
Airport Simferopol International Airport (UKFF)
Time Latitude Longitude Altitude Speed Heading
2026-04-19 21:08 45.02021 33.99655 609 ft 0 kts 96°
2026-04-19 21:08 45.02016 33.99662 609 ft 2 kts 182°
2026-04-19 21:08 45.02023 33.99626 609 ft 7 kts 290°
2026-04-19 21:09 45.02045 33.99554 608 ft 10 kts 338°
2026-04-19 21:09 45.02123 33.99544 608 ft 13 kts 354°
2026-04-19 21:09 45.02211 33.99533 608 ft 12 kts 354°
2026-04-19 21:09 45.02288 33.99523 608 ft 11 kts 355°
2026-04-19 21:10 45.02359 33.99514 608 ft 10 kts 354°
2026-04-19 21:10 45.02421 33.99506 608 ft 8 kts 356°
2026-04-19 21:10 45.02476 33.99499 608 ft 7 kts 354°
2026-04-19 21:10 45.02523 33.99493 608 ft 7 kts 354°
2026-04-19 21:11 45.02569 33.99487 608 ft 7 kts 354°
2026-04-19 21:11 45.02618 33.99480 608 ft 7 kts 353°
2026-04-19 21:11 45.02664 33.99454 608 ft 7 kts 321°
2026-04-19 21:11 45.02700 33.99397 608 ft 9 kts 308°
2026-04-19 21:12 45.02750 33.99307 608 ft 14 kts 306°
2026-04-19 21:12 45.02820 33.99183 608 ft 18 kts 310°
2026-04-19 21:12 45.02907 33.99031 608 ft 22 kts 309°
2026-04-19 21:12 45.03013 33.98861 608 ft 24 kts 311°
2026-04-19 21:13 45.03084 33.98662 608 ft 23 kts 283°
2026-04-19 21:13 45.03122 33.98437 613 ft 24 kts 284°
2026-04-19 21:13 45.03162 33.98203 608 ft 25 kts 282°
2026-04-19 21:13 45.03205 33.97960 608 ft 26 kts 283°
2026-04-19 21:14 45.03247 33.97712 609 ft 26 kts 284°
2026-04-19 21:14 45.03282 33.97500 615 ft 8 kts 288°
2026-04-19 21:14 45.03296 33.97428 615 ft 8 kts 283°
2026-04-19 21:14 45.03309 33.97346 609 ft 9 kts 284°
2026-04-19 21:15 45.03326 33.97251 611 ft 11 kts 283°
2026-04-19 21:15 45.03345 33.97143 608 ft 12 kts 280°
2026-04-19 21:15 45.03363 33.97023 608 ft 13 kts 284°
2026-04-19 21:15 45.03412 33.96961 608 ft 0 kts 339°
2026-04-19 21:16 45.03427 33.96956 608 ft 6 kts 345°
2026-04-19 21:16 45.03479 33.96956 608 ft 12 kts
2026-04-19 21:16 45.03505 33.96950 608 ft 0 kts 341°
2026-04-19 21:17 45.03508 33.96948 608 ft 2 kts 340°
2026-04-19 21:17 45.03557 33.96917 616 ft 13 kts 339°
2026-04-19 21:17 45.03667 33.96858 607 ft 20 kts 350°
2026-04-19 21:17 45.03697 33.96854 607 ft 0 kts 17°
2026-04-19 21:18 45.03706 33.96859 605 ft 6 kts 19°
2026-04-19 21:19 45.03780 33.96883 607 ft 15 kts
2026-04-19 21:19 45.03796 33.96886 607 ft 0 kts
2026-04-19 21:20 45.03894 33.96926 616 ft 40 kts 15°
2026-04-19 21:20 45.04326 33.97068 629 ft 81 kts
2026-04-19 21:20 45.04939 33.97203 770 ft 94 kts 13°
2026-04-19 21:20 45.05591 33.97383 942 ft 100 kts
2026-04-19 21:21 45.06285 33.97203 1049 ft 105 kts 13°
2026-04-19 21:21 45.06902 33.97751 1168 ft 110 kts 55°
2026-04-19 21:21 45.06752 33.98747 1255 ft 121 kts 147°
2026-04-19 21:21 45.05941 33.99022 1399 ft 119 kts 171°
2026-04-19 21:22 45.05125 33.99222 1551 ft 119 kts 172°
2026-04-19 21:22 45.04282 33.99416 1603 ft 126 kts 171°
2026-04-19 21:22 45.03418 33.99632 1700 ft 126 kts 169°
2026-04-19 21:22 45.02562 33.99861 1849 ft 122 kts 172°
2026-04-19 21:23 45.01685 33.99775 1723 ft 136 kts 205°
2026-04-19 21:23 45.01086 33.98881 1593 ft 120 kts 262°
2026-04-19 21:23 45.01389 33.97961 1510 ft 104 kts 323°
2026-04-19 21:23 45.01956 33.97349 1466 ft 102 kts 327°
2026-04-19 21:24 45.02495 33.96788 1510 ft 93 kts 333°
2026-04-19 21:24 45.03211 33.96693 808 ft 112 kts 12°
2026-04-19 21:24 45.03818 33.96904 618 ft 70 kts 14°
2026-04-19 21:24 45.04138 33.97017 604 ft 23 kts 13°
2026-04-19 21:25 45.04291 33.97070 602 ft 32 kts 12°
2026-04-19 21:25 45.04493 33.97134 600 ft 49 kts 21°
2026-04-19 21:25 45.03957 33.96953 607 ft 0 kts 14°
2026-04-19 21:25 45.04095 33.97082 606 ft 35 kts 69°
2026-04-19 21:26 45.04044 33.97287 603 ft 19 kts 171°
2026-04-19 21:26 45.03936 33.97293 604 ft 13 kts 192°
2026-04-19 21:26 45.03808 33.97253 605 ft 39 kts 194°
2026-04-19 21:26 45.03403 33.97123 608 ft 57 kts 188°
2026-04-19 21:27 45.03235 33.97146 608 ft 0 kts 79°